Weather History for Worland, WY

Change the Weather History Date:

Wednesday, May 15, 2013

  Actual Average Record
Temperature  
Mean Temperature 64 °F 55 °F  
Max Temperature 79 °F 70 °F 93 °F (1987)
Min Temperature 49 °F 41 °F 30 °F (1983)
Degree Days  
Heating Degree Days 1 10  
Month to date heating degree days 138 185  
Since 1 July heating degree days 7317 7652  
Cooling Degree Days 0 0  
Month to date cooling degree days 16 0  
Year to date cooling degree days 16 1  
Growing Degree Days 12 (Base 50)    
Moisture  
Dew Point 35 °F    
Average Humidity 38    
Maximum Humidity 56    
Minimum Humidity 19    
Precipitation  
Precipitation T in 0.05 in 0.68 in (1976)
Month to date precipitation 0.43 0.66  
Year to date precipitation 2.00 2.40  
Sea Level Pressure  
Sea Level Pressure 29.80 in    
Wind  
Wind Speed 5 mph (SW)    
Max Wind Speed 18 mph    
Max Gust Speed 24 mph    
Visibility 10 miles    
Events      
T = Trace of Precipitation, MM = Missing Value Source: NWS Daily Summary

Daily Weather History Graph

Daily Weather History Graph

Search for Another Location

Airport:

Trip Planner

Search our weather history database for the weather conditions in past years. The results will help you decide how hot, cold, wet, or windy it might be!

Date:

Astronomy

May. 15, 2013 Rise Set
Actual Time 5:45 AM MDT 8:31 PM MDT
Civil Twilight 5:12 AM MDT 9:05 PM MDT
Nautical Twilight 4:29 AM MDT 9:47 PM MDT
Astronomical Twilight 3:41 AM MDT 10:36 PM MDT
Moon 10:26 AM MDT (5/15) 12:18 AM MDT (5/15)
Length of Visible Light 15h 52m
Length of Day
14h 45m
Waxing Crescent, 27% of the Moon is Illuminated
May 15
Waxing Crescent
May 17
First Quarter
May 24
Full
May 31
Last Quarter
Jun 8
New

Hourly Weather History & Observations

Time (MDT) Temp. Dew Point Humidity Pressure Visibility Wind Dir Wind Speed Gust Speed Precip Events Conditions
12:53 AM 55.9 °F 37.0 °F 49% 29.79 in 10.0 mi SSW 8.1 mph - N/A   Clear
1:53 AM 57.0 °F 37.0 °F 47% 29.79 in 10.0 mi SW 6.9 mph - N/A   Clear
2:53 AM 54.0 °F 37.0 °F 53% 29.80 in 10.0 mi Calm Calm - N/A   Clear
3:53 AM 54.0 °F 36.0 °F 51% 29.82 in 10.0 mi North 9.2 mph - N/A   Clear
4:53 AM 54.0 °F 34.0 °F 47% 29.85 in 10.0 mi Calm Calm - N/A   Clear
5:53 AM 50.0 °F 35.1 °F 57% 29.87 in 10.0 mi WSW 5.8 mph - N/A   Clear
6:53 AM 54.0 °F 35.1 °F 49% 29.89 in 10.0 mi SSW 4.6 mph - N/A   Clear
7:53 AM 60.1 °F 28.9 °F 31% 29.90 in 10.0 mi Calm Calm - N/A   Clear
8:53 AM 61.0 °F 26.1 °F 26% 29.92 in 10.0 mi Calm Calm - N/A   Clear
9:53 AM 62.1 °F 28.9 °F 29% 29.90 in 10.0 mi ENE 3.5 mph - N/A   Clear
10:53 AM 64.9 °F 28.9 °F 26% 29.89 in 10.0 mi Calm Calm - N/A   Clear
11:53 AM 68.0 °F 30.0 °F 24% 29.87 in 10.0 mi Variable 4.6 mph - N/A   Clear
12:53 PM 71.1 °F 30.9 °F 23% 29.85 in 10.0 mi NNE 4.6 mph - N/A   Clear
1:53 PM 73.9 °F 32.0 °F 21% 29.80 in 10.0 mi NNW 6.9 mph - N/A   Clear
2:53 PM 75.9 °F 32.0 °F 20% 29.77 in 10.0 mi North 8.1 mph - N/A   Clear
3:53 PM 75.9 °F 30.9 °F 19% 29.75 in 10.0 mi Calm Calm - N/A   Clear
4:53 PM 75.9 °F 30.9 °F 19% 29.74 in 10.0 mi WSW 4.6 mph - N/A   Clear
5:53 PM 75.9 °F 34.0 °F 22% 29.73 in 10.0 mi NNW 5.8 mph - N/A   Clear
6:53 PM 75.0 °F 35.1 °F 23% 29.70 in 10.0 mi Calm Calm - N/A   Mostly Cloudy
7:53 PM 70.0 °F 39.9 °F 33% 29.70 in 10.0 mi South 5.8 mph - N/A   Partly Cloudy
8:53 PM 66.9 °F 42.1 °F 40% 29.71 in 10.0 mi WSW 4.6 mph - N/A   Mostly Cloudy
9:53 PM 69.1 °F 41.0 °F 36% 29.73 in 10.0 mi SSE 9.2 mph - N/A   Mostly Cloudy
10:53 PM 66.9 °F 43.0 °F 42% 29.75 in 10.0 mi SSE 15.0 mph - N/A   Mostly Cloudy
11:53 PM 64.0 °F 46.0 °F 52% 29.74 in 10.0 mi South 11.5 mph - N/A   Mostly Cloudy